Change the Weather History Date:

Friday, September 6, 2013

  Actual Average (KLOZ) Record (KLOZ)
Temperature  
Mean Temperature 68 °F 72 °F  
Max Temperature 84 °F 83 °F 95 °F (1998)
Min Temperature 53 °F 61 °F 45 °F (1988)
Degree Days  
Heating Degree Days 0 0  
Month to date heating degree days 0  
Since 1 July heating degree days 1  
Cooling Degree Days 4 7  
Month to date cooling degree days 46  
Growing Degree Days 18 (Base 50)    
Moisture  
Dew Point 60 °F    
Average Humidity 79    
Maximum Humidity 100    
Minimum Humidity 42    
Precipitation  
Precipitation 0.00 in 0.11 in 0.88 in (2011)
Month to date precipitation 0.64  
Sea Level Pressure  
Sea Level Pressure 30.20 in    
Wind  
Wind Speed 1 mph (West)    
Max Wind Speed 6 mph    
Max Gust Speed -    
Visibility 9 miles    
Events Fog    
T = Trace of Precipitation, MM = Missing Value Source: NWS Daily Summary

Daily Weather History Graph

Daily Weather History Graph

Search for Another Location

Airport or City:

Trip Planner

Search our weather history database for the weather conditions in past years. The results will help you decide how hot, cold, wet, or windy it might be!

Date:

Astronomy

Sep. 06, 2013 Rise Set
Actual Time 7:08 AM EDT 7:53 PM EDT
Civil Twilight 6:41 AM EDT 8:19 PM EDT
Nautical Twilight 6:11 AM EDT 8:50 PM EDT
Astronomical Twilight 5:39 AM EDT 9:22 PM EDT
Moon 8:16 AM EDT (9/6) 8:21 PM EDT (9/6)
Length of Visible Light 13h 37m
Length of Day
12h 45m
New Moon, 1% of the Moon is Illuminated
Sep 6
New Moon
Sep 12
First Quarter
Sep 19
Full
Sep 26
Last Quarter
Oct 4
New

Hourly Weather History & Observations

Time (EDT) Temp. Heat Index Dew Point Humidity Pressure Visibility Wind Dir Wind Speed Gust Speed Precip Events Conditions
12:15 AM 60.8 °F - 60.8 °F 100% 30.23 in 10.0 mi Calm Calm - N/A   Unknown
12:35 AM 60.8 °F - 60.8 °F 100% 30.24 in 10.0 mi Calm Calm - N/A   Unknown
12:55 AM 59.0 °F - 59.0 °F 100% 30.23 in 10.0 mi Calm Calm - N/A   Unknown
1:15 AM 59.0 °F - 59.0 °F 100% 30.23 in 10.0 mi Calm Calm - N/A   Unknown
1:35 AM 59.0 °F - 59.0 °F 100% 30.23 in 10.0 mi Calm Calm - N/A   Unknown
1:55 AM 59.0 °F - 59.0 °F 100% 30.23 in 9.0 mi Calm Calm - N/A   Unknown
2:15 AM 59.0 °F - 59.0 °F 100% 30.23 in 10.0 mi Calm Calm - N/A   Unknown
2:35 AM 57.2 °F - 57.2 °F 100% 30.22 in 9.0 mi Calm Calm - N/A   Unknown
2:55 AM 57.2 °F - 57.2 °F 100% 30.22 in 7.0 mi Calm Calm - N/A   Unknown
3:15 AM 57.2 °F - 57.2 °F 100% 30.22 in 5.0 mi Calm Calm - N/A   Mist
3:35 AM 57.2 °F - 57.2 °F 100% 30.22 in 10.0 mi Calm Calm - N/A   Unknown
3:55 AM 57.2 °F - 57.2 °F 100% 30.22 in 10.0 mi Calm Calm - N/A   Unknown
4:15 AM 55.4 °F - 55.4 °F 100% 30.22 in 10.0 mi Calm Calm - N/A   Unknown
4:35 AM 55.4 °F - 55.4 °F 100% 30.22 in 8.0 mi Calm Calm - N/A   Unknown
4:55 AM 55.4 °F - 55.4 °F 100% 30.22 in 0.5 mi Calm Calm - N/A Fog Fog
5:15 AM 55.4 °F - 55.4 °F 100% 30.22 in 0.8 mi Calm Calm - N/A   Mist
5:35 AM 55.4 °F - 55.4 °F 100% 30.22 in 0.2 mi Calm Calm - N/A Fog Fog
5:55 AM 55.4 °F - 55.4 °F 100% 30.22 in 0.2 mi Calm Calm - N/A Fog Fog
6:15 AM 55.4 °F - 55.4 °F 100% 30.22 in 0.8 mi Calm Calm - N/A   Mist
6:35 AM 53.6 °F - 53.6 °F 100% 30.23 in 1.2 mi Calm Calm - N/A   Mist
6:55 AM 55.4 °F - 55.4 °F 100% 30.24 in 7.0 mi Calm Calm - N/A   Unknown
7:15 AM 55.4 °F - 55.4 °F 100% 30.24 in 8.0 mi Calm Calm - N/A   Unknown
7:35 AM 55.4 °F - 55.4 °F 100% 30.24 in 1.5 mi Calm Calm - N/A   Mist
7:55 AM 55.4 °F - 55.4 °F 100% 30.25 in 6.0 mi Calm Calm - N/A   Clear
8:15 AM 57.2 °F - 57.2 °F 100% 30.25 in 8.0 mi Calm Calm - N/A   Clear
8:35 AM 59.0 °F - 59.0 °F 100% 30.25 in 10.0 mi Calm Calm - N/A   Clear
8:55 AM 60.8 °F - 59.0 °F 94% 30.25 in 10.0 mi Calm Calm - N/A   Clear
9:15 AM 64.4 °F - 59.0 °F 83% 30.25 in 10.0 mi Calm Calm - N/A   Clear
9:35 AM 66.2 °F - 60.8 °F 83% 30.25 in 10.0 mi Calm Calm - N/A   Clear
9:55 AM 68.0 °F - 62.6 °F 83% 30.25 in 10.0 mi Calm Calm - N/A   Clear
10:15 AM 71.6 °F - 62.6 °F 73% 30.25 in 10.0 mi SSE 3.5 mph - N/A   Clear
10:35 AM 73.4 °F - 62.6 °F 69% 30.25 in 10.0 mi Calm Calm - N/A   Clear
10:55 AM 73.4 °F - 62.6 °F 69% 30.25 in 10.0 mi Calm Calm - N/A   Clear
11:15 AM 75.2 °F - 62.6 °F 65% 30.25 in 10.0 mi SE 3.5 mph - N/A   Clear
11:35 AM 77.0 °F - 62.6 °F 61% 30.25 in 10.0 mi East 3.5 mph - N/A   Clear
11:55 AM 77.0 °F - 62.6 °F 61% 30.24 in 10.0 mi Calm Calm - N/A   Clear
12:15 PM 77.0 °F - 62.6 °F 61% 30.24 in 10.0 mi SE 5.8 mph - N/A   Partly Cloudy
12:35 PM 78.8 °F - 62.6 °F 57% 30.24 in 10.0 mi East 3.5 mph - N/A   Mostly Cloudy
12:55 PM 78.8 °F - 62.6 °F 57% 30.23 in 10.0 mi Calm Calm - N/A   Overcast
1:15 PM 77.0 °F - 62.6 °F 61% 30.22 in 10.0 mi Calm Calm - N/A   Mostly Cloudy
1:35 PM 80.6 °F 81.8 °F 62.6 °F 54% 30.21 in 10.0 mi East 3.5 mph - N/A   Partly Cloudy
1:55 PM 80.6 °F 81.8 °F 62.6 °F 54% 30.21 in 10.0 mi South 4.6 mph - N/A   Scattered Clouds
2:15 PM 80.6 °F 81.5 °F 60.8 °F 51% 30.20 in 10.0 mi NNE 3.5 mph - N/A   Scattered Clouds
2:35 PM 82.4 °F 83.4 °F 62.6 °F 51% 30.19 in 10.0 mi WNW 3.5 mph - N/A   Mostly Cloudy
2:55 PM 82.4 °F 82.9 °F 60.8 °F 48% 30.18 in 10.0 mi Calm Calm - N/A   Partly Cloudy
3:15 PM 82.4 °F 82.5 °F 59.0 °F 45% 30.17 in 10.0 mi Calm Calm - N/A   Clear
3:35 PM 84.2 °F 83.8 °F 59.0 °F 42% 30.16 in 10.0 mi WNW 5.8 mph - N/A   Clear
3:55 PM 82.4 °F 82.5 °F 59.0 °F 45% 30.16 in 10.0 mi West 4.6 mph - N/A   Clear
4:15 PM 84.2 °F 83.8 °F 59.0 °F 42% 30.15 in 10.0 mi WSW 4.6 mph - N/A   Clear
4:35 PM 84.2 °F 83.8 °F 59.0 °F 42% 30.15 in 10.0 mi NW 3.5 mph - N/A   Partly Cloudy
4:55 PM 82.4 °F 82.5 °F 59.0 °F 45% 30.15 in 10.0 mi Calm Calm - N/A   Partly Cloudy
5:15 PM 84.2 °F 83.8 °F 59.0 °F 42% 30.15 in 10.0 mi NW 4.6 mph - N/A   Clear
5:35 PM 82.4 °F 82.5 °F 59.0 °F 45% 30.14 in 10.0 mi Calm Calm - N/A   Clear
5:55 PM 82.4 °F 82.5 °F 59.0 °F 45% 30.14 in 10.0 mi WSW 4.6 mph - N/A   Clear
6:15 PM 82.4 °F 82.9 °F 60.8 °F 48% 30.14 in 10.0 mi Calm Calm - N/A   Scattered Clouds
6:35 PM 82.4 °F 82.9 °F 60.8 °F 48% 30.14 in 10.0 mi Calm Calm - N/A   Partly Cloudy
6:55 PM 80.6 °F 81.8 °F 62.6 °F 54% 30.14 in 10.0 mi WNW 3.5 mph - N/A   Clear
7:15 PM 77.0 °F - 64.4 °F 65% 30.13 in 10.0 mi Calm Calm - N/A   Clear
7:35 PM 75.2 °F - 66.2 °F 73% 30.14 in 10.0 mi WNW 3.5 mph - N/A   Clear
7:55 PM 73.4 °F - 66.2 °F 78% 30.14 in 10.0 mi Calm Calm - N/A   Unknown
8:15 PM 71.6 °F - 64.4 °F 78% 30.14 in 10.0 mi Calm Calm - N/A   Unknown
8:35 PM 71.6 °F - 64.4 °F 78% 30.15 in 10.0 mi Calm Calm - N/A   Unknown
8:55 PM 68.0 °F - 64.4 °F 88% 30.15 in 10.0 mi Calm Calm - N/A   Unknown
9:15 PM 68.0 °F - 64.4 °F 88% 30.16 in 10.0 mi Calm Calm - N/A   Unknown
9:35 PM 66.2 °F - 64.4 °F 94% 30.16 in 10.0 mi Calm Calm - N/A   Unknown
9:55 PM 64.4 °F - 64.4 °F 100% 30.16 in 10.0 mi Calm Calm - N/A   Unknown
10:15 PM 64.4 °F - 64.4 °F 100% 30.17 in 10.0 mi Calm Calm - N/A   Unknown
10:35 PM 64.4 °F - 62.6 °F 94% 30.17 in 10.0 mi Calm Calm - N/A   Unknown
10:55 PM 64.4 °F - 62.6 °F 94% 30.17 in 10.0 mi Calm Calm - N/A   Unknown
11:15 PM 62.6 °F - 62.6 °F 100% 30.17 in 10.0 mi Calm Calm - N/A   Unknown
11:35 PM 62.6 °F - 62.6 °F 100% 30.17 in 10.0 mi Calm Calm - N/A   Unknown
11:55 PM 62.6 °F - 62.6 °F 100% 30.17 in 10.0 mi Calm Calm - N/A   Unknown